sat.trackr.live / text

‹ back to catalog

STARLINK-11517 [DTC]

NORAD 62559 · 2025-006F

PAYLOAD ACTIVE UNKNOWN

§ Identity

Operator
Country
US
Launch date
2025-01-10
Launch site
AFETR
Launch vehicle
Mass (kg)
RCS (m²)

Purposes: comms

External: N2YO · Heavens-Above · Gunter

§ Orbital elements

Epoch: 2026-09-21T16:00:38.599488Z

Period
91.67 min
Inclination
43.0005°
Eccentricity
0.0002649
Mean motion
15.70901796 rev/d
Perigee alt
354.5 km
Apogee alt
358.1 km
Semi-major
6,734.5 km
B*
1.2053e-3
RAAN
38.6899°
Arg perigee
261.9692°
Mean anomaly
98.0875°
Rev number
9,742

§ Raw data

STARLINK-11517 [DTC]1 62559U 25006F   26264.66711342  .00157598  00000+0  12053-2 0  99972 62559  43.0005  38.6899 0002649 261.9692  98.0875 15.70901796 97424

JSON: /api/v1/satellites/62559 · /tle

For live sub-satellite position, see the globe view (requires WebGL).

§ Visibility from observer

Set your observer location to see the next 7 days of passes ≥ 10°. The values pass through the URL so the page stays shareable.

No JS? Fill the form by hand. The geolocation button needs JavaScript.